Weather History for LIED - November, 2012

Change the Weather History Date:

Saturday, November 10, 2012

  Actual Average (WUND) Record (WUND)
Temperature  
Mean Temperature 68 °F -  
Max Temperature 77 °F 63 °F - (-1)
Min Temperature 58 °F 45 °F - (-1)
Cooling Degree Days 2    
Growing Degree Days 18 (Base 50)    
Moisture  
Dew Point 61 °F    
Average Humidity 80    
Maximum Humidity 88    
Minimum Humidity 63    
Precipitation  
Precipitation 0.00 in 0.08 in - ()
Sea Level Pressure  
Sea Level Pressure 29.90 in    
Wind  
Wind Speed 5 mph ()    
Max Wind Speed 12 mph    
Max Gust Speed -    
Visibility 5.7 miles    
Events      
Averages and records for this station are not official NWS values.
T = Trace of Precipitation, MM = Missing Value Source: Averaged Metar Reports

Daily Weather History Graph

Daily Weather History Graph

Search for Another Location

Airport or City:

Trip Planner

Search our weather history database for the weather conditions in past years. The results will help you decide how hot, cold, wet, or windy it might be!

Date:

Astronomy

Nov. 10, 2012 Rise Set
Actual Time 7:02 AM CET 5:13 PM CET
Civil Twilight 6:34 AM CET 5:41 PM CET
Nautical Twilight 6:01 AM CET 6:13 PM CET
Astronomical Twilight 5:30 AM CET 6:45 PM CET
Moon 2:50 AM CET (11/10) 2:49 PM CET (11/10)
Length of Visible Light 11h 07m
Length of Day
10h 10m
Waning Crescent, 16% of the Moon is Illuminated
Nov 10
Waning Crescent
Nov 13
New
Nov 20
First Quarter
Nov 28
Full
Dec 6
Last Quarter

Hourly Weather History & Observations

Time (CET) Temp. Dew Point Humidity Pressure Visibility Wind Dir Wind Speed Gust Speed Precip Events Conditions
12:55 AM 64.4 °F 60.8 °F 88% 29.98 in 6.2 mi SE 9.2 mph - N/A   Scattered Clouds
1:00 AM 65 °F 61 °F 82% 30.00 in 7 mi SE 9.2 mph - -   Partly Cloudy
1:55 AM 66.2 °F 60.8 °F 83% 29.98 in 6.2 mi SE 10.4 mph - N/A   Scattered Clouds
2:55 AM 62.6 °F 59.0 °F 88% 29.95 in 6.2 mi East 6.9 mph - N/A   Scattered Clouds
3:55 AM 60.8 °F 55.4 °F 82% 29.95 in 6.2 mi North 2.3 mph - N/A   Scattered Clouds
4:00 AM 60 °F 55 °F 79% 29.95 in 6 mi North 2.3 mph - -   Partly Cloudy
4:55 AM 59.0 °F 53.6 °F 82% 29.92 in 6.2 mi NE 5.8 mph - N/A   Scattered Clouds
5:55 AM 59.0 °F 55.4 °F 88% 29.92 in 6.2 mi NE 6.9 mph - N/A   Scattered Clouds
6:55 AM 59.0 °F 55.4 °F 88% 29.95 in 6.2 mi NE 5.8 mph - N/A   Mostly Cloudy
7:00 AM 59 °F 55 °F 83% 29.96 in 6 mi NE 5.8 mph - -   Mostly Cloudy
8:55 AM 62.6 °F 59.0 °F 88% 29.95 in 6.2 mi North 3.5 mph - N/A   Scattered Clouds
9:55 AM 66.2 °F 60.8 °F 83% 29.95 in 6.2 mi NNW 3.5 mph - N/A   Scattered Clouds
10:00 AM 66 °F 61 °F 78% 29.95 in 6 mi NNW 3.5 mph - -   Partly Cloudy
10:55 AM 71.6 °F 62.6 °F 73% 29.92 in 6.2 mi Calm Calm - N/A   Partly Cloudy
12:55 PM 73.4 °F 64.4 °F 73% 29.89 in 6.2 mi SW 1.2 mph - N/A   Scattered Clouds
1:00 PM 73 °F 65 °F 68% 29.90 in 7 mi SW 1.2 mph - -   Partly Cloudy
1:55 PM 77.0 °F 64.4 °F 65% 29.86 in 6.2 mi NW 2.3 mph - N/A   Partly Cloudy
2:55 PM 73.4 °F 62.6 °F 69% 29.86 in 6.2 mi WNW 3.5 mph - N/A   Partly Cloudy
3:55 PM 73.4 °F 62.6 °F 69% 29.86 in 6.2 mi WNW 3.5 mph - N/A   Scattered Clouds
4:00 PM 73 °F 63 °F 63% 29.88 in 7 mi WNW 3.5 mph - -   Partly Cloudy
4:55 PM 71.6 °F 64.4 °F 78% 29.86 in 6.2 mi WSW 6.9 mph - N/A   Scattered Clouds
5:55 PM 69.8 °F 64.4 °F 83% 29.86 in 6.2 mi NW 2.3 mph - N/A   Scattered Clouds
6:55 PM 68.0 °F 64.4 °F 88% 29.86 in 6.2 mi SE 2.3 mph - N/A   Scattered Clouds
7:00 PM 67 °F 64 °F 86% 29.87 in 7 mi SE 2.3 mph - -   Overcast
8:55 PM 66.2 °F 60.8 °F 83% 29.86 in 4.3 mi SE 11.5 mph - N/A   Scattered Clouds
9:55 PM 66.2 °F 60.8 °F 83% 29.83 in 2.5 mi SSE 9.2 mph - N/A   Scattered Clouds
10:00 PM 66 °F 62 °F 81% 29.85 in 2 mi SSE 9.2 mph - -   Mist
10:55 PM 66.2 °F 60.8 °F 83% 29.80 in 1.9 mi ESE 11.5 mph - N/A   Mostly Cloudy
11:55 PM 66.2 °F 60.8 °F 83% 29.80 in 1.9 mi SE 9.2 mph - N/A   Mostly Cloudy